When you browse on this site, cookies collect data to enhance your experience and personalize the content and advertising you see.
Visit our Privacy Policy to learn more. By continuing to use the site, you agree to this use of cookies and data.

Hourly Weather Grenchen

Today, 12 July, Sunday

Time Temperature Precipitation Wind Pressure Humidity
00:00 +13°C° 0 mm 1 mps 724 mmHg 88%
01:00 +12°C° 0 mm 1 mps 723 mmHg 90%
02:00 +12°C° 0 mm 1 mps 723 mmHg 91%
03:00 +11°C° 0 mm 1 mps 723 mmHg 93%
04:00 +12°C° 0 mm 2 mps 723 mmHg 89%
05:00 +13°C° 0 mm 2 mps 723 mmHg 85%
06:00 +13°C° 0 mm 3 mps 724 mmHg 81%
07:00 +16°C° 0 mm 3 mps 724 mmHg 74%
08:00 +18°C° 0 mm 4 mps 724 mmHg 66%
09:00 +19°C° 0 mm 4 mps 724 mmHg 59%
10:00 +20°C° 0 mm 4 mps 724 mmHg 55%
11:00 +22°C° 0 mm 4 mps 724 mmHg 52%
12:00 +23°C° 0 mm 4 mps 724 mmHg 48%
13:00 +23°C° 0 mm 4 mps 724 mmHg 48%
14:00 +23°C° 0 mm 4 mps 724 mmHg 48%
15:00 +23°C° 0 mm 4 mps 723 mmHg 48%
16:00 +22°C° 0 mm 3 mps 723 mmHg 54%
17:00 +21°C° 0 mm 3 mps 723 mmHg 60%
18:00 +20°C° 0 mm 2 mps 723 mmHg 66%
19:00 +18°C° 0 mm 2 mps 723 mmHg 71%
20:00 +17°C° 0 mm 2 mps 723 mmHg 75%
21:00 +15°C° 0 mm 2 mps 723 mmHg 79%
22:00 +14°C° 0 mm 2 mps 723 mmHg 82%
23:00 +13°C° 0 mm 1 mps 723 mmHg 85%

Tomorrow, 13 July, Monday

Time Temperature Precipitation Wind Pressure Humidity
00:00 +13°C° 0 mm 1 mps 722 mmHg 88%
01:00 +12°C° 0 mm 1 mps 722 mmHg 88%
02:00 +12°C° 0 mm 1 mps 722 mmHg 89%
03:00 +11°C° 0 mm 0 mps 722 mmHg 90%
04:00 +12°C° 0 mm 0 mps 722 mmHg 86%
05:00 +14°C° 0 mm 1 mps 722 mmHg 82%
06:00 +15°C° 0 mm 1 mps 722 mmHg 79%
07:00 +18°C° 0 mm 1 mps 722 mmHg 72%
08:00 +20°C° 0 mm 1 mps 722 mmHg 66%
09:00 +22°C° 0 mm 1 mps 722 mmHg 60%
10:00 +23°C° 0 mm 2 mps 722 mmHg 56%
11:00 +24°C° 0 mm 2 mps 722 mmHg 53%
12:00 +25°C° 0 mm 2 mps 722 mmHg 49%
13:00 +25°C° 0 mm 2 mps 722 mmHg 49%
14:00 +25°C° 0 mm 2 mps 721 mmHg 49%
15:00 +25°C° 0 mm 2 mps 721 mmHg 49%
16:00 +24°C° 0 mm 2 mps 721 mmHg 56%
17:00 +23°C° 0 mm 2 mps 721 mmHg 63%
18:00 +22°C° 0 mm 1 mps 721 mmHg 70%
19:00 +20°C° 0 mm 1 mps 721 mmHg 75%
20:00 +18°C° 0 mm 1 mps 721 mmHg 79%
21:00 +15°C° 0 mm 1 mps 721 mmHg 84%
22:00 +14°C° 0 mm 0 mps 720 mmHg 86%
23:00 +13°C° 0 mm 0 mps 720 mmHg 88%

Day after tomorrow, 14 July, Tuesday

Time Temperature Precipitation Wind Pressure Humidity
00:00 +13°C° 0 mm 0 mps 720 mmHg 90%
01:00 +12°C° 0 mm 0 mps 720 mmHg 90%
02:00 +12°C° 0 mm 0 mps 719 mmHg 91%
03:00 +12°C° 0 mm 0 mps 719 mmHg 92%
04:00 +13°C° 0 mm 0 mps 719 mmHg 89%
05:00 +14°C° 0 mm 0 mps 720 mmHg 87%
06:00 +15°C° 0 mm 0 mps 720 mmHg 84%
07:00 +17°C° 0 mm 0 mps 720 mmHg 77%
08:00 +20°C° 0 mm 1 mps 720 mmHg 70%
09:00 +22°C° 0 mm 1 mps 720 mmHg 63%
10:00 +23°C° 0.1 mm 1 mps 720 mmHg 60%
11:00 +24°C° 0.1 mm 1 mps 720 mmHg 56%
12:00 +25°C° 0.1 mm 1 mps 719 mmHg 53%
13:00 +24°C° 0.3 mm 2 mps 719 mmHg 57%
14:00 +24°C° 0.3 mm 2 mps 719 mmHg 61%
15:00 +23°C° 0.3 mm 2 mps 718 mmHg 65%
16:00 +23°C° 0.5 mm 1 mps 719 mmHg 71%
17:00 +22°C° 0.5 mm 1 mps 719 mmHg 78%
18:00 +21°C° 0.5 mm 1 mps 719 mmHg 84%
19:00 +20°C° 0.1 mm 1 mps 719 mmHg 86%
20:00 +18°C° 0.1 mm 1 mps 719 mmHg 88%
21:00 +15°C° 0.1 mm 1 mps 719 mmHg 89%
22:00 +15°C° 0 mm 1 mps 719 mmHg 90%
23:00 +15°C° 0 mm 1 mps 718 mmHg 91%

15 July, Wednesday

Time Temperature Precipitation Wind Pressure Humidity
00:00 +14°C° 0 mm 1 mps 718 mmHg 92%
01:00 +14°C° 0 mm 1 mps 718 mmHg 92%
02:00 +14°C° 0 mm 1 mps 718 mmHg 92%
03:00 +14°C° 0 mm 1 mps 718 mmHg 93%
04:00 +15°C° 0 mm 1 mps 718 mmHg 91%
05:00 +15°C° 0 mm 1 mps 718 mmHg 90%
06:00 +16°C° 0 mm 1 mps 718 mmHg 89%
07:00 +19°C° 0.3 mm 1 mps 719 mmHg 84%
08:00 +19°C° 0.3 mm 2 mps 719 mmHg 79%
09:00 +20°C° 0.3 mm 2 mps 719 mmHg 74%
10:00 +20°C° 0.7 mm 2 mps 719 mmHg 77%
11:00 +20°C° 0.7 mm 3 mps 719 mmHg 79%
12:00 +20°C° 0.7 mm 3 mps 719 mmHg 81%
13:00 +20°C° 0.4 mm 3 mps 719 mmHg 80%
14:00 +20°C° 0.4 mm 3 mps 719 mmHg 78%
15:00 +20°C° 0.4 mm 3 mps 719 mmHg 77%
16:00 +19°C° 0.2 mm 2 mps 719 mmHg 80%
17:00 +18°C° 0.2 mm 2 mps 719 mmHg 84%
18:00 +18°C° 0.2 mm 1 mps 719 mmHg 88%
19:00 +18°C° 0.1 mm 1 mps 720 mmHg 89%
20:00 +16°C° 0.1 mm 1 mps 720 mmHg 90%
21:00 +16°C° 0.1 mm 1 mps 720 mmHg 91%
22:00 +15°C° 0 mm 1 mps 720 mmHg 92%
23:00 +15°C° 0 mm 1 mps 720 mmHg 93%

16 July, Thursday

Time Temperature Precipitation Wind Pressure Humidity
00:00 +15°C° 0 mm 1 mps 720 mmHg 93%
01:00 +15°C° 0 mm 1 mps 720 mmHg 93%
02:00 +14°C° 0 mm 1 mps 720 mmHg 94%
03:00 +14°C° 0 mm 1 mps 720 mmHg 94%
04:00 +14°C° 0 mm 1 mps 720 mmHg 93%
05:00 +15°C° 0 mm 1 mps 720 mmHg 93%
06:00 +15°C° 0 mm 1 mps 720 mmHg 92%
07:00 +16°C° 0 mm 1 mps 721 mmHg 87%
08:00 +18°C° 0 mm 1 mps 721 mmHg 81%
09:00 +19°C° 0 mm 1 mps 721 mmHg 76%
10:00 +19°C° 0.1 mm 1 mps 721 mmHg 74%
11:00 +20°C° 0.1 mm 1 mps 721 mmHg 71%
12:00 +19°C° 0.1 mm 2 mps 721 mmHg 69%
13:00 +19°C° 0.1 mm 2 mps 721 mmHg 69%
14:00 +19°C° 0.1 mm 2 mps 721 mmHg 69%
15:00 +19°C° 0.1 mm 2 mps 721 mmHg 69%
16:00 +19°C° 0 mm 2 mps 721 mmHg 73%
17:00 +18°C° 0 mm 2 mps 721 mmHg 77%
18:00 +18°C° 0 mm 1 mps 721 mmHg 81%
19:00 +16°C° 0 mm 1 mps 721 mmHg 85%
20:00 +15°C° 0 mm 1 mps 721 mmHg 88%
21:00 +14°C° 0 mm 1 mps 721 mmHg 91%
22:00 +14°C° 0 mm 1 mps 721 mmHg 92%
23:00 +14°C° 0 mm 1 mps 721 mmHg 93%

17 July, Friday

Time Temperature Precipitation Wind Pressure Humidity
00:00 +13°C° 0 mm 1 mps 721 mmHg 94%
01:00 +12°C° 0 mm 0 mps 721 mmHg 94%
02:00 +11°C° 0 mm 0 mps 720 mmHg 95%
03:00 +11°C° 0 mm 0 mps 720 mmHg 96%
04:00 +13°C° 0 mm 1 mps 721 mmHg 94%
05:00 +14°C° 0 mm 1 mps 721 mmHg 92%
06:00 +15°C° 0 mm 1 mps 721 mmHg 90%
07:00 +18°C° 0 mm 1 mps 721 mmHg 81%
08:00 +18°C° 0 mm 2 mps 722 mmHg 72%
09:00 +20°C° 0 mm 2 mps 722 mmHg 64%
10:00 +21°C° 0 mm 3 mps 722 mmHg 59%
11:00 +22°C° 0 mm 3 mps 722 mmHg 55%
12:00 +24°C° 0 mm 3 mps 722 mmHg 51%
13:00 +24°C° 0 mm 3 mps 722 mmHg 52%
14:00 +24°C° 0 mm 3 mps 722 mmHg 52%
15:00 +24°C° 0 mm 3 mps 722 mmHg 52%
16:00 +22°C° 0 mm 3 mps 722 mmHg 59%
17:00 +21°C° 0 mm 2 mps 722 mmHg 66%
18:00 +20°C° 0 mm 2 mps 722 mmHg 73%
19:00 +19°C° 0 mm 1 mps 722 mmHg 77%
20:00 +18°C° 0 mm 1 mps 722 mmHg 80%
21:00 +15°C° 0 mm 1 mps 722 mmHg 84%
22:00 +14°C° 0 mm 1 mps 722 mmHg 85%
23:00 +14°C° 0 mm 1 mps 722 mmHg 85%
Show more